Weather observations for the past three days for
Port Angeles Fairchild International Airport
Imperial (Metric)
Date Time (pdt) Wind (mph) Vis. (mi.) Weather Sky Cond. Temperature (ºF) Relative Humidity Wind Chill (°F) Heat Index (°F) Pressure Precipitation (in)
Air Dwpt 6 hour altimeter (in) sea level (mb) 1 hr 3 hr 6 hr
Max. Min.
19 14:53 N 8 10.00 Fair CLR 72 57 59% 30.21 1022.8
19 13:53 W 10 G 16 10.00 Fair CLR 72 57 59% 30.22 1023.1
19 12:53 NW 10 10.00 Fair CLR 69.1 55.9 63% 30.22 1023.1
19 11:53 NW 7 10.00 Fair CLR 68 57 68% 30.22 1023.2
19 10:53 NW 8 10.00 Fair CLR 66.9 55.9 68 57 68% 30.21 1022.8
19 09:53 Vrbl 6 10.00 Fair CLR 66 55.9 70% 30.21 1022.8
19 08:53 W 7 10.00 Fair CLR 64 55.9 75% 30.2 1022.7
19 07:53 W 6 10.00 Fair CLR 62.1 55.9 80% 30.19 1022.3
19 06:53 W 5 10.00 Fair CLR 59 55 87% 30.17 1021.7
19 05:53 SW 6 10.00 Mostly Cloudy BKN009 57.9 55 90% 30.17 1021.5
19 04:53 W 7 10.00 Mostly Cloudy BKN010 57.9 55 59 57.9 90% 30.15 1020.9
19 03:53 W 8 10.00 Overcast OVC009 59 55 87% 30.15 1020.8
19 02:53 W 7 10.00 Overcast OVC010 59 55 87% 30.14 1020.3
19 01:53 W 8 10.00 Overcast OVC012 59 55 87% 30.13 1020.3
19 00:53 W 12 10.00 Overcast OVC013 59 55 87% 30.14 1020.5
18 23:53 W 10 10.00 A Few Clouds FEW014 57.9 54 87% 30.13 1020.2
18 22:53 W 13 10.00 Fair CLR 59 54 70 57.9 83% 30.12 1020.0
18 21:53 W 15 G 25 10.00 Fair CLR 59 54 83% 30.11 1019.7
18 20:53 W 14 10.00 Fair CLR 61 53.1 75% 30.1 1019.1
18 19:53 W 14 G 22 10.00 Fair CLR 63 53.1 70% 30.08 1018.5
18 18:53 W 16 G 28 10.00 Fair CLR 66 54 65% 30.07 1018.4
18 17:53 W 16 G 25 10.00 Fair CLR 68 54 61% 30.07 1018.2
18 16:53 NW 13 G 20 10.00 Fair CLR 69.1 54 70 64 59% 30.07 1018.0
18 15:53 NW 10 10.00 Fair CLR 69.1 55 61% 30.07 1018.2
18 14:53 NW 9 10.00 Fair CLR 69.1 55 61% 30.08 1018.6
18 13:53 NW 12 G 20 10.00 Fair CLR 66 55 68% 30.09 1018.9
18 12:53 NW 10 G 20 10.00 Fair CLR 64.9 55 70% 30.1 1019.3
18 11:53 NW 8 10.00 Fair CLR 64.9 55.9 73% 30.1 1019.1
18 10:53 N 7 10.00 Fair CLR 64 55.9 66 59 75% 30.1 1019.1
18 09:53 N 6 10.00 Mostly Cloudy BKN016 64 55.9 75% 30.1 1019.1
18 08:53 SW 6 10.00 A Few Clouds FEW009 64 57 78% 30.09 1018.8
18 07:53 W 5 10.00 Overcast OVC010 60.1 57 90% 30.09 1018.9
18 06:53 Calm 10.00 Overcast OVC008 59 57 93% 30.09 1018.8
18 05:53 W 6 10.00 Overcast OVC006 59 57 93% 30.07 1018.2
18 04:53 W 6 10.00 Overcast OVC008 60.1 57 60.1 59 90% 30.07 1018.0
18 03:53 W 7 10.00 Overcast OVC006 59 57 93% 30.06 1017.8
18 02:53 W 6 10.00 Overcast OVC005 59 57 93% 30.05 1017.4
18 01:53 W 10 10.00 Overcast OVC005 59 57 93% 30.04 1017.4
18 00:53 W 13 10.00 Overcast OVC005 59 57 93% 30.03 1017.0
17 23:53 W 9 10.00 Overcast OVC005 59 57 93% 30.03 1016.7
17 22:53 W 12 10.00 Partly Cloudy SCT005 59 55.9 73 59 90% 30.02 1016.5
17 21:53 W 14 10.00 Fair CLR 59 55.9 90% 30.01 1016.3
17 20:53 W 13 G 22 10.00 Fair CLR 60.1 55.9 86% 30.01 1016.3
17 19:53 W 13 G 22 10.00 Fair CLR 63 57 81% 30 1015.7
17 18:53 W 12 10.00 Fair CLR 66.9 57 71% 29.99 1015.5
17 17:53 NW 12 G 18 10.00 Fair CLR 72 57 59% 29.98 1015.2
17 16:53 W 13 G 21 10.00 Fair CLR 73 57.9 75 64.9 59% 29.98 1015.1
17 15:53 W 10 10.00 Fair CLR 75 59 58% 77 29.99 1015.3
17 14:53 NW 9 10.00 Fair CLR 70 57.9 66% 29.99 1015.4
17 13:53 NW 8 10.00 Fair CLR 66.9 55.9 68% 30 1015.8
17 12:53 Calm 10.00 Fair CLR 66.9 55.9 68% 30 1015.8
17 11:53 Calm 10.00 Fair CLR 66.9 57 71% 29.99 1015.6
17 10:53 NW 3 10.00 Fair CLR 66.9 57 69.1 55.9 71% 29.99 1015.5
17 09:53 NW 8 10.00 Fair CLR 64 55.9 75% 29.99 1015.3
17 08:53 W 6 10.00 Fair CLR 64.9 55.9 73% 29.99 1015.3
17 07:53 W 7 10.00 Fair CLR 64 55.9 75% 29.98 1015.1
17 06:53 W 3 10.00 Fair CLR 62.1 57 84% 29.97 1014.6
17 05:53 Calm 10.00 Fair CLR 57 54 90% 29.95 1014.1
17 04:53 Calm 10.00 Fair CLR 57.9 54 73.9 57.9 87% 29.94 1013.7
17 03:53 Calm 10.00 Fair CLR 61 55.9 84% 29.93 1013.5
17 02:53 SW 12 10.00 Fair CLR 73 54 51% 29.92 1012.9
17 01:53 W 5 10.00 Fair CLR 64 55 73% 29.92 1013.0
17 00:53 Calm 10.00 Fair CLR 61 57 87% 29.93 1013.2
16 23:53 SW 5 10.00 Fair CLR 60.1 55.9 86% 29.93 1013.3
16 22:53 Calm 10.00 Fair CLR 61 55.9 79 60.1 84% 29.93 1013.4
16 21:53 W 3 10.00 Fair CLR 63 55.9 78% 29.93 1013.5
16 20:53 Calm 10.00 Fair CLR 66.9 55.9 68% 29.93 1013.3
16 19:53 NW 3 10.00 Fair CLR 69.1 55.9 63% 29.93 1013.4
16 18:53 NW 3 10.00 Fair CLR 78.1 57.9 50% 79 29.93 1013.5
16 17:53 NW 3 10.00 Fair CLR 75.9 57 52% 78 29.95 1014.2
16 16:53 N 5 10.00 Fair CLR 79 57 82 75.9 47% 80 29.96 1014.3
16 15:53 Vrbl 6 10.00 Fair CLR 79 57 47% 80 29.97 1014.8
Date Time (pdt) Wind (mph) Vis. (mi.) Weather Sky Cond. Air Dwpt Max. Min. Relative Humidity Wind Chill (°F) Heat Index (°F) altimeter (in) sea level (mb) 1 hr 3 hr 6 hr
6 hour
Temperature (ºF) Pressure Precipitation (in)